FW1493 Weather Reports


Display with metric or nautical units.
time (UTC)temp
F
wind
direction
speed
MPH
gust
MPH
rain 1hr
in
rain 24hr
in
rain mn
in
humidity
%
barometer
mb
20190716160448 90 218 2.0 3.0 0.00 0.00 0.00 63 1021.2
20190716155822 90 164 1.0 3.0 0.00 0.00 0.00 63 1021.2
20190716155308 90 176 1.0 1.0 0.00 0.00 0.00 58 1021.2
20190716154025 90 150 2.0 6.0 0.00 0.00 0.00 65 1021.2
20190716153446 89 180 2.0 3.0 0.00 0.00 0.00 68 1021.2
20190716152500 90 152 2.0 2.0 0.00 0.00 0.00 69 1021.6
20190716151617 89 233 2.0 3.0 0.00 0.00 0.00 68 1021.2
20190716150901 89 253 3.0 3.0 0.00 0.00 0.00 67 1021.2
20190716150307 88 200 2.0 2.0 0.00 0.00 0.00 67 1021.2
20190716145503 89 37 0.0 1.0 0.00 0.00 0.00 66 1020.9
20190716144927 88 0.0 0.0 0.00 0.00 0.00 69 1021.2
20190716143652 88 227 0.0 3.0 0.00 0.00 0.00 72 1020.9
20190716143055 88 246 2.0 2.0 0.00 0.00 0.00 71 1020.9
20190716142501 88 225 2.0 2.0 0.00 0.00 0.00 73 1020.9
20190716141940 89 145 0.0 1.0 0.00 0.00 0.00 75 1020.9
20190716141334 88 115 1.0 2.0 0.00 0.00 0.00 76 1020.9
20190716140700 87 194 1.0 2.0 0.00 0.00 0.00 78 1020.9
20190716140056 87 63 1.0 1.0 0.00 0.00 0.00 80 1020.9
20190716135457 88 102 2.0 2.0 0.00 0.00 0.00 78 1020.9
20190716134734 87 105 0.0 0.0 0.00 0.00 0.00 79 1020.5
20190716134147 85 102 0.0 1.0 0.00 0.00 0.00 82 1020.9
20190716133626 0 0.0 0.0 0.00 0.00 0.00 1020.9
20190716131652 84 108 0.0 2.0 0.00 0.00 0.00 84 1020.9
20190716131110 83 83 2.0 3.0 0.00 0.00 0.00 86 1020.5
20190716130528 82 82 1.0 1.0 0.00 0.00 0.00 87 1020.5
20190716130020 82 0.0 0.0 0.00 0.00 0.00 87 1020.5
20190716125301 81 75 1.0 2.0 0.00 0.00 0.00 88 1020.9
20190716124553 81 53 1.0 2.0 0.00 0.00 0.00 89 1020.5
20190716123922 80 43 1.0 2.0 0.00 0.00 0.00 88 1020.5
20190716123408 80 69 2.0 2.0 0.00 0.00 0.00 89 1020.5
20190716122523 79 82 1.0 1.0 0.00 0.00 0.00 92 1020.9
20190716121823 79 65 0.0 2.0 0.00 0.00 0.00 92 1020.5
20190716121143 79 66 1.0 2.0 0.00 0.00 0.00 92 1020.5
20190716120644 79 76 1.0 1.0 0.00 0.00 0.00 92 1020.5
20190716115854 78 79 0.0 1.0 0.00 0.00 0.00 94 1020.2
20190716115344 77 69 1.0 1.0 0.00 0.00 0.00 96 1020.2
20190716114446 0 0.0 0.0 0.00 0.00 0.00 1020.2
20190716113410 76 79 0.0 0.0 0.00 0.00 0.00 98 1020.2
20190716112832 76 78 1.0 1.0 0.00 0.00 0.00 98 1019.9
20190716111608 76 78 0.0 0.0 0.00 0.00 0.00 99 1019.9
20190716110812 76 77 0.0 1.0 0.00 0.00 0.00 99 1019.9
20190716110209 76 74 0.0 0.0 0.00 0.00 0.00 99 1019.5
20190716105633 76 74 0.0 1.0 0.00 0.00 0.00 99 1019.5
20190716105057 76 73 0.0 0.0 0.00 0.00 0.00 99 1019.5
20190716104433 76 73 0.0 0.0 0.00 0.00 0.00 99 1019.5
20190716103813 76 73 0.0 0.0 0.00 0.00 0.00 99 1019.5
20190716103118 76 69 0.0 1.0 0.00 0.00 0.00 99 1019.2
20190716102513 76 69 0.0 1.0 0.00 0.00 0.00 99 1019.2
20190716101651 76 69 0.0 2.0 0.00 0.00 0.00 99 1018.8
20190716101059 76 70 1.0 2.0 0.00 0.00 0.00 99 1019.2
20190716100458 76 71 0.0 1.0 0.00 0.00 0.00 99 1018.8
20190716095934 76 72 0.0 1.0 0.00 0.00 0.00 99 1018.8
20190716095405 76 72 0.0 1.0 0.00 0.00 0.00 99 1018.8
20190716094817 76 72 0.0 0.0 0.00 0.00 0.00 98 1018.8
20190716094125 76 72 0.0 0.0 0.00 0.00 0.00 98 1018.8
20190716093621 76 72 0.0 1.0 0.00 0.00 0.00 98 1018.8
20190716093102 76 72 0.0 1.0 0.00 0.00 0.00 98 1018.5
20190716092554 76 72 0.0 1.0 0.00 0.00 0.00 98 1018.5
20190716092033 77 72 1.0 1.0 0.00 0.00 0.00 98 1018.5
20190716091430 77 72 1.0 1.0 0.00 0.00 0.00 98 1018.5
20190716090810 77 73 0.0 2.0 0.00 0.00 0.00 98 1018.5
20190716090143 77 79 0.0 1.0 0.00 0.00 0.00 98 1018.5
20190716085643 77 80 1.0 1.0 0.00 0.00 0.00 98 1018.5
20190716085143 77 81 0.0 1.0 0.00 0.00 0.00 98 1018.2
20190716084546 77 82 0.0 0.0 0.00 0.00 0.00 97 1018.5
20190716083958 77 82 0.0 0.0 0.00 0.00 0.00 97 1018.8
20190716083352 77 82 0.0 0.0 0.00 0.00 0.00 97 1018.5
20190716082846 77 83 0.0 0.0 0.00 0.00 0.00 97 1018.5
20190716082305 77 83 0.0 0.0 0.00 0.00 0.00 97 1018.5
20190716081738 78 83 0.0 0.0 0.00 0.00 0.00 97 1018.5
20190716081033 78 83 0.0 1.0 0.00 0.00 0.00 97 1018.5
20190716080534 78 83 0.0 1.0 0.00 0.00 0.00 97 1018.5
20190716075954 78 86 0.0 0.0 0.00 0.00 0.00 97 1018.5
20190716075446 78 86 0.0 1.0 0.00 0.00 0.00 97 1018.5
20190716074920 78 86 0.0 1.0 0.00 0.00 0.00 97 1018.5
20190716074330 78 86 0.0 1.0 0.00 0.00 0.00 97 1018.5
20190716073821 78 86 1.0 1.0 0.00 0.00 0.00 97 1018.8
20190716073253 78 87 0.0 0.0 0.00 0.00 0.00 97 1018.5
20190716072732 78 87 0.0 1.0 0.00 0.00 0.00 96 1018.5
20190716072232 78 87 0.0 1.0 0.00 0.00 0.00 96 1018.8
20190716071545 78 87 0.0 1.0 0.00 0.00 0.00 96 1018.5
20190716071046 78 87 0.0 1.0 0.00 0.00 0.00 96 1018.5
20190716070440 78 87 0.0 1.0 0.00 0.00 0.00 96 1018.5
20190716065939 78 90 0.0 1.0 0.00 0.00 0.00 96 1018.5
20190716065436 78 88 0.0 1.0 0.00 0.00 0.00 96 1018.5
20190716064743 79 94 0.0 2.0 0.00 0.00 0.00 96 1018.8
20190716064218 79 94 1.0 2.0 0.00 0.00 0.00 96 1018.8
20190716063514 79 102 0.0 1.0 0.00 0.00 0.00 96 1018.8
20190716062932 79 97 0.0 1.0 0.00 0.00 0.00 96 1018.8
20190716062349 79 126 0.0 1.0 0.00 0.00 0.00 96 1018.8
20190716061831 79 126 0.0 0.0 0.00 0.00 0.00 96 1019.2
20190716061251 79 126 0.0 0.0 0.00 0.00 0.00 96 1019.2
20190716060746 79 126 0.0 0.0 0.00 0.00 0.00 95 1018.8
20190716060243 79 126 0.0 0.0 0.00 0.00 0.00 95 1019.2
20190716055742 79 126 0.0 0.0 0.00 0.00 0.00 95 1019.2
20190716055159 79 129 0.0 0.0 0.00 0.00 0.00 95 1018.8
20190716054645 79 129 0.0 0.0 0.00 0.00 0.00 95 1019.2
20190716054037 79 129 0.0 0.0 0.00 0.00 0.00 95 1019.2
20190716053506 79 129 0.0 0.0 0.00 0.00 0.00 95 1019.2
20190716052927 79 129 0.0 0.0 0.00 0.00 0.00 95 1019.2
20190716052428 80 129 0.0 0.0 0.00 0.00 0.00 95 1019.2
20190716051846 80 129 0.0 0.0 0.00 0.00 0.00 95 1019.2
20190716051216 80 129 0.0 0.0 0.00 0.00 0.00 95 1019.2
20190716050641 80 129 0.0 0.0 0.00 0.00 0.00 95 1019.2
20190716050044 80 129 0.0 0.0 0.00 0.00 0.00 95 1019.2
20190716045542 80 129 0.0 0.0 0.00 0.00 0.00 94 1019.2
20190716045037 80 129 0.0 0.0 0.00 0.00 0.00 94 1019.5
20190716044526 80 129 0.0 0.0 0.00 0.00 0.00 94 1019.2
20190716043938 81 128 0.0 0.0 0.00 0.00 0.00 93 1019.2
20190716043348 81 128 0.0 0.0 0.00 0.00 0.00 93 1019.2
20190716042748 81 129 0.0 1.0 0.00 0.00 0.00 93 1018.8
20190716042243 81 114 0.0 1.0 0.00 0.00 0.00 93 1019.2
20190716041728 81 112 0.0 1.0 0.00 0.00 0.00 93 1019.2
20190716041132 81 117 0.0 1.0 0.00 0.00 0.00 93 1019.2
20190716040545 81 117 0.0 1.0 0.00 0.00 0.00 93 1019.2
20190716040038 81 108 0.0 2.0 0.00 0.00 0.00 93 1019.2
20190716035513 81 99 0.0 2.0 0.00 0.00 0.00 93 1019.2
20190716034955 81 158 0.0 0.0 0.00 0.00 0.00 93 1019.2
20190716034449 81 158 0.0 0.0 0.00 0.00 0.00 93 1018.8
20190716033936 81 158 0.0 0.0 0.00 0.00 0.00 92 1019.2
20190716033413 81 158 0.0 0.0 0.00 0.00 0.00 92 1019.2
20190716032842 81 158 0.0 0.0 0.00 0.00 0.00 91 1018.8
20190716032307 81 158 0.0 1.0 0.00 0.00 0.00 91 1018.8
20190716031759 81 158 1.0 1.0 0.00 0.00 0.00 91 1018.8
20190716031145 81 158 0.0 0.0 0.00 0.00 0.00 91 1018.8
20190716030609 82 158 0.0 0.0 0.00 0.00 0.00 90 1019.2
20190716030105 82 158 0.0 0.0 0.00 0.00 0.00 90 1019.2
20190716025541 82 158 0.0 2.0 0.00 0.00 0.00 89 1019.2
20190716025016 82 159 0.0 2.0 0.00 0.00 0.00 89 1019.2
20190716024511 82 142 0.0 1.0 0.00 0.00 0.00 89 1019.2
20190716023959 82 130 0.0 1.0 0.00 0.00 0.00 89 1019.2
20190716023424 82 120 0.0 1.0 0.00 0.00 0.00 89 1019.2
20190716022643 82 132 0.0 2.0 0.00 0.00 0.00 89 1019.2
20190716022031 82 157 0.0 2.0 0.00 0.00 0.00 88 1019.2
20190716021529 82 150 1.0 2.0 0.00 0.00 0.00 88 1018.8
20190716020736 82 145 0.0 1.0 0.00 0.00 0.00 88 1019.2
20190716020048 82 149 0.0 2.0 0.00 0.00 0.00 87 1018.8
20190716015426 82 150 1.0 2.0 0.00 0.00 0.00 88 1019.2
20190716014810 82 157 0.0 1.0 0.00 0.00 0.00 87 1019.2
20190716014235 82 156 0.0 3.0 0.00 0.00 0.00 87 1019.2
20190716013654 83 158 2.0 3.0 0.00 0.00 0.00 87 1019.2
20190716013125 83 140 1.0 2.0 0.00 0.00 0.00 87 1019.2
20190716012529 83 150 0.0 2.0 0.00 0.00 0.00 86 1019.2
20190716011947 83 145 1.0 2.0 0.00 0.00 0.00 86 1019.2
20190716011405 83 181 1.0 1.0 0.00 0.00 0.00 86 1019.2
20190716010755 83 159 0.0 2.0 0.00 0.00 0.00 86 1019.2
20190716010230 83 168 0.0 2.0 0.00 0.00 0.00 85 1018.8
20190716005638 83 142 0.0 1.0 0.00 0.00 0.00 86 1019.2
20190716005128 83 141 0.0 1.0 0.00 0.00 0.00 86 1018.8
20190716004541 83 144 0.0 2.0 0.00 0.00 0.00 85 1019.2
20190716004024 83 150 0.0 3.0 0.00 0.00 0.00 85 1019.2
20190716003505 83 133 0.0 4.0 0.00 0.00 0.00 85 1019.2
20190716002918 84 150 2.0 3.0 0.00 0.00 0.00 85 1018.8
20190716002416 84 161 1.0 2.0 0.00 0.00 0.00 85 1019.2
20190716001838 84 170 1.0 3.0 0.00 0.00 0.00 84 1018.8
20190716001244 84 174 1.0 3.0 0.00 0.00 0.00 83 1018.8
20190716000740 84 171 1.0 2.0 0.00 0.00 0.00 83 1018.8
20190716000225 84 165 1.0 3.0 0.00 0.00 0.00 84 1018.8
20190715235719 84 230 1.0 4.0 0.00 0.00 0.00 83 1018.8
20190715235212 84 164 1.0 4.0 0.00 0.00 0.00 82 1018.5
20190715234644 84 196 2.0 2.0 0.00 0.00 0.00 83 1018.8
20190715234136 84 158 1.0 3.0 0.00 0.00 0.00 83 1018.8
20190715233628 84 164 0.0 2.0 0.00 0.00 0.00 83 1018.8
20190715233034 85 153 1.0 3.0 0.00 0.00 0.00 83 1018.5
20190715232354 85 216 2.0 6.0 0.00 0.00 0.00 83 1018.5
20190715231835 85 165 1.0 3.0 0.00 0.00 0.00 83 1018.5
20190715231325 85 189 1.0 4.0 0.00 0.00 0.00 83 1018.2
20190715230819 85 151 1.0 3.0 0.00 0.00 0.00 83 1018.5
20190715230307 85 178 0.0 3.0 0.00 0.00 0.00 82 1018.5
20190715225748 85 149 2.0 3.0 0.00 0.00 0.00 81 1018.5
20190715224928 85 260 1.0 4.0 0.00 0.00 0.00 82 1018.5
20190715224405 85 201 1.0 4.0 0.00 0.00 0.00 82 1018.5
20190715223823 85 197 1.0 3.0 0.00 0.00 0.00 81 1018.5
20190715223239 85 145 1.0 3.0 0.00 0.00 0.00 82 1018.5
20190715222731 85 189 1.0 3.0 0.00 0.00 0.00 82 1018.5
20190715222147 85 174 2.0 4.0 0.00 0.00 0.00 82 1018.5
20190715221615 85 227 2.0 4.0 0.00 0.00 0.00 80 1018.5
20190715221046 85 142 0.0 6.0 0.00 0.00 0.00 81 1018.5
20190715220507 85 173 2.0 6.0 0.00 0.00 0.00 81 1018.5
20190715215822 85 182 2.0 3.0 0.00 0.00 0.00 82 1018.5
20190715215315 85 206 2.0 6.0 0.00 0.00 0.00 81 1018.5
20190715214757 85 169 4.0 6.0 0.00 0.00 0.00 81 1018.5
20190715214219 85 173 3.0 6.0 0.00 0.00 0.00 81 1018.5
20190715213712 85 213 1.0 6.0 0.00 0.00 0.00 80 1018.2
20190715213209 85 162 3.0 6.0 0.00 0.00 0.00 80 1018.5
20190715212658 86 178 3.0 6.0 0.00 0.00 0.00 80 1018.5
20190715212158 86 160 1.0 7.0 0.00 0.00 0.00 79 1018.8
20190715211654 86 184 3.0 7.0 0.00 0.00 0.00 78 1018.8
20190715211155 87 152 2.0 7.0 0.00 0.00 0.00 79 1018.8
20190715210652 87 223 2.0 7.0 0.00 0.00 0.00 76 1018.8
20190715210139 87 69 2.0 7.0 0.00 0.00 0.00 76 1018.8
20190715205635 88 173 3.0 8.0 0.00 0.00 0.00 75 1018.8
20190715205123 88 152 2.0 8.0 0.00 0.00 0.00 73 1018.8
20190715204618 88 215 5.0 7.0 0.00 0.00 0.00 72 1018.8
20190715204117 90 241 3.0 7.0 0.00 0.00 0.00 69 1018.8
20190715203616 90 194 2.0 7.0 0.00 0.00 0.00 71 1018.8
20190715203110 90 222 4.0 10.0 0.00 0.00 0.00 71 1019.2
20190715202600 90 193 5.0 10.0 0.00 0.00 0.00 70 1019.2
20190715202054 90 124 5.0 7.0 0.00 0.00 0.00 67 1018.8
20190715201544 90 196 3.0 9.0 0.00 0.00 0.00 68 1018.8
20190715201035 90 239 4.0 9.0 0.00 0.00 0.00 70 1018.8
20190715200529 90 214 3.0 9.0 0.00 0.00 0.00 70 1018.8
20190715200014 90 193 4.0 8.0 0.00 0.00 0.00 70 1018.8
20190715195512 89 165 3.0 8.0 0.00 0.00 0.00 70 1019.2
20190715195006 90 224 5.0 7.0 0.00 0.00 0.00 67 1018.8
20190715194456 90 165 2.0 8.0 0.00 0.00 0.00 68 1019.2
20190715193953 90 228 2.0 8.0 0.00 0.00 0.00 68 1019.2
20190715193447 89 208 2.0 8.0 0.00 0.00 0.00 70 1019.2
20190715192934 90 223 4.0 8.0 0.00 0.00 0.00 68 1019.5
20190715192412 89 214 4.0 9.0 0.00 0.00 0.00 70 1019.5
20190715191859 90 285 4.0 9.0 0.00 0.00 0.00 68 1019.5
20190715191330 89 249 5.0 7.0 0.00 0.00 0.00 68 1019.5
20190715190815 89 170 2.0 7.0 0.00 0.00 0.00 71 1019.2
20190715190315 89 193 2.0 8.0 0.00 0.00 0.00 70 1019.2
20190715185815 89 230 2.0 8.0 0.00 0.00 0.00 71 1019.5
20190715185311 90 195 4.0 8.0 0.00 0.00 0.00 71 1019.2
20190715184756 90 260 2.0 8.0 0.00 0.00 0.00 69 1019.5
20190715184256 90 153 4.0 8.0 0.00 0.00 0.00 70 1019.5
20190715183740 90 181 3.0 8.0 0.00 0.00 0.00 70 1019.5
20190715183234 89 201 2.0 9.0 0.00 0.00 0.00 69 1019.9
20190715182723 90 124 5.0 9.0 0.00 0.00 0.00 68 1019.9
20190715182209 90 204 3.0 8.0 0.00 0.00 0.00 70 1019.9
20190715181659 89 162 2.0 8.0 0.00 0.00 0.00 71 1019.9
20190715181156 89 224 4.0 10.0 0.00 0.00 0.00 70 1019.9
20190715180639 90 176 1.0 10.0 0.00 0.00 0.00 69 1019.9
20190715180130 90 191 3.0 8.0 0.00 0.00 0.00 67 1020.2
20190715175626 90 228 4.0 9.0 0.00 0.00 0.00 68 1019.9
20190715175116 90 156 4.0 9.0 0.00 0.00 0.00 70 1020.2
20190715174600 89 145 2.0 8.0 0.00 0.00 0.00 69 1020.2
20190715174047 90 153 6.0 8.0 0.00 0.00 0.00 66 1020.2
20190715173547 90 213 1.0 7.0 0.00 0.00 0.00 67 1020.2
20190715173047 90 221 4.0 8.0 0.00 0.00 0.00 66 1020.2
20190715172538 90 111 2.0 8.0 0.00 0.00 0.00 65 1020.2
20190715172036 89 214 4.0 8.0 0.00 0.00 0.00 66 1020.2
20190715171534 89 223 2.0 9.0 0.00 0.00 0.00 66 1020.5
20190715171027 90 210 5.0 9.0 0.00 0.00 0.00 64 1020.5
20190715170513 90 149 3.0 9.0 0.00 0.00 0.00 64 1020.2
20190715170004 90 217 2.0 9.0 0.00 0.00 0.00 65 1020.2
20190715165504 90 179 4.0 8.0 0.00 0.00 0.00 63 1020.5
20190715164942 91 167 2.0 6.0 0.00 0.00 0.00 62 1020.5
20190715164425 90 122 2.0 7.0 0.00 0.00 0.00 61 1020.5
20190715163917 90 137 0.0 7.0 0.00 0.00 0.00 61 1020.5
20190715163342 90 114 2.0 7.0 0.00 0.00 0.00 61 1020.5
20190715162837 90 181 2.0 7.0 0.00 0.00 0.00 62 1020.5
20190715162325 90 160 3.0 8.0 0.00 0.00 0.00 62 1020.5
20190715161812 89 235 4.0 8.0 0.00 0.00 0.00 60 1020.5